Location: Caseificio
(44.7500°N, 11.0500°E)
Time: 22:43:21
(UTC+00:00)

Meteor 1-24 Rocket - Pass Details

Date: 15 October 2022
Orbit: 791 x 926 km, 81.3° (Epoch: 08 December)

Event Time Altitude Azimuth Distance (km) Brightness Sun altitude
Rises 04:58:52 0° 142° (SE) 3,336 7.5 -6.5°
Reaches altitude 10° 05:02:08 10° 122° (ESE) 2,389 7.3 -5.9°
Maximum altitude 05:05:20 16° 85° (E) 1,973 7.1 -5.3°
Drops below altitude 10° 05:08:31 10° 48° (NE) 2,371 6.7 -4.8°
Sets 05:11:44 0° 27° (NNE) 3,300 7.1 -4.2°
